Location: Alsip
(41.6689°N, 87.7387°W)
Time: 14:17:54
(UTC+00:00)

Cosmos 1812 Rocket - Pass Details

Date: 14 July 2020
Orbit: 605 x 633 km, 82.5° (Epoch: 04 August)

Event Time Altitude Azimuth Distance (km) Brightness Sun altitude
Rises 01:48:36 0° 346° (NNW) 2,869 7.8 -4.6°
Reaches altitude 10° 01:50:52 10° 342° (NNW) 1,961 7.1 -5.0°
Maximum altitude 01:55:04 50° 266° (W) 771 4.5 -5.6°
Drops below altitude 10° 01:59:14 10° 191° (SSW) 1,950 5.9 -6.2°
Sets 02:01:29 0° 186° (S) 2,852 6.7 -6.6°
